Wind_Speed
3 2 2 2 3 3 3 3 3 3 3 3 3 3 3 3 4 4 4 4 5 4 4 3 3 4 4 4 5 5 5 5 5 5 5 5 6 7 7 7 7 7 7
2 2 2 2 2 3 4 4 4 3 3 4 4 4 4 4 4 4 5 5 5 5 5 4 4 5 5 5 5 6 5 6 6 6 6 7 7 8 8 8 7 7 8
2 2 2 3 3 3 4 4 4 4 4 5 5 5 5 5 5 5 5 5 6 6 6 5 5 6 7 6 6 7 6 6 6 7 7 7 8 8 8 8 8 8 8
2 2 3 3 3 4 4 4 5 5 5 5 5 5 5 5 5 5 6 6 6 6 7 7 6 6 7 7 7 7 7 7 7 8 8 8 8 8 8 9 9 9 9
3 3 3 4 4 4 4 5 5 5 4 4 5 5 6 6 6 6 7 7 7 8 8 8 8 8 8 8 8 8 9 8 8 8 9 9 9 9 9 9 9 9 10
3 4 4 4 4 5 5 5 5 5 4 4 5 5 6 7 7 7 8 9 9 9 9 9 9 9 8 9 9 9 9 9 9 9 9 10 10 10 10 10 10 10 10
4 5 5 5 5 5 6 6 6 6 6 5 5 6 6 7 8 8 8 9 9 9 10 10 10 10 9 10 10 10 10 10 10 10 10 10 10 10 10 10 10 11 11
6 6 6 6 6 6 7 7 7 7 6 6 6 6 7 7 8 8 9 9 9 10 10 11 11 10 10 10 11 12 12 11 11 11 11 12 11 11 12 12 12 12 12
7 7 7 7 7 7 8 8 8 8 8 8 8 8 8 9 9 10 10 11 11 11 11 12 12 11 10 11 12 13 13 13 13 13 13 13 13 13 13 13 13 13 13
7 8 7 7 8 8 8 9 9 9 9 10 10 10 10 10 11 11 12 12 13 13 13 13 13 13 13 12 13 13 14 14 15 15 14 14 14 14 15 15 14 14 14
8 8 8 8 9 9 10 11 10 10 11 11 12 12 13 13 12 12 13 13 14 14 14 14 14 14 14 14 14 14 14 15 15 16 16 16 16 15 16 16 16 15 16
9 10 10 10 10 11 11 12 11 11 12 13 13 14 14 14 14 14 14 14 15 15 16 16 15 16 16 16 16 16 16 17 17 17 17 17 17 17 16 16 17 16 16
11 11 11 11 12 12 12 12 12 11 12 13 14 14 14 14 14 15 16 16 16 17 18 17 16 17 17 17 18 18 19 18 19 19 18 18 18 18 18 18 18 18 18
12 13 13 12 13 13 13 14 14 13 14 14 14 14 14 15 15 16 17 18 18 18 19 19 19 19 19 19 20 20 20 20 20 20 20 20 19 19 18 19 19 20 19
13 14 14 13 14 14 15 15 15 14 14 15 15 15 15 16 16 16 17 18 17 18 19 20 21 21 22 22 22 21 21 21 22 21 21 21 21 20 20 20 20 20 20
14 14 14 15 15 16 16 16 16 15 15 15 16 16 16 16 17 17 17 17 17 18 18 20 22 22 22 22 22 22 23 23 23 22 22 22 21 21 21 20 20 19 19
15 15 15 16 17 17 17 18 17 17 17 17 18 17 17 17 17 17 17 17 18 18 18 19 21 21 22 22 23 23 23 24 24 24 24 24 23 23 22 21 20 19 19
16 16 16 17 18 18 18 18 18 18 18 18 18 18 18 18 18 17 17 18 19 19 20 20 21 22 22 22 23 24 23 23 24 24 24 24 24 24 23 22 21 20 20
17 17 17 18 19 19 19 19 20 20 19 19 19 20 20 20 19 20 20 20 20 20 21 21 21 22 23 23 23 22 22 22 22 23 23 23 23 24 23 22 22 22 21
18 18 19 19 20 20 20 21 21 21 20 20 21 21 22 21 21 22 22 22 21 21 21 21 21 22 23 23 23 23 22 22 22 22 22 22 23 23 23 23 23 22 22
19 19 19 20 21 22 22 21 22 22 21 22 22 22 22 22 22 22 22 22 22 22 22 22 22 22 23 23 23 22 22 22 22 22 22 21 22 22 23 23 23 23 23
20 20 21 21 22 23 23 23 23 23 23 23 23 22 23 23 22 23 23 23 23 22 22 22 22 22 22 22 22 23 22 22 22 22 23 22 22 22 22 23 23 22 22
22 22 22 23 23 23 24 24 23 24 24 24 24 24 24 23 23 23 23 23 22 22 22 22 21 21 21 22 23 23 23 22 22 22 23 22 22 22 22 23 23 24 23
23 23 23 24 24 24 23 23 24 25 25 25 25 26 26 25 25 24 24 23 22 22 22 22 22 22 22 22 22 23 23 23 23 23 23 22 23 23 23 23 24 24 25
24 24 24 24 24 24 25 25 25 26 26 26 26 26 26 26 26 25 24 24 24 24 23 23 23 22 22 22 22 23 23 23 23 23 24 24 24 24 24 25 25 25 25
25 25 26 25 25 25 25 26 26 26 26 26 26 25 25 25 26 25 25 24 24 24 24 23 23 22 22 23 23 23 23 24 24 24 24 25 24 25 25 26 26 26 26
Wind_Direction
36 35 28 25 15 4 4 2 348 330 306 285 279 274 264 259 253 243 248 248 251 243 239 236 236 237 242 237 228 228 229 234 231 226 232 238 234 230 234 236 242 243 245
2 4 351 346 353 353 351 349 335 328 313 297 284 275 271 267 263 250 247 247 251 251 245 244 251 245 240 239 237 233 234 239 237 238 239 244 240 236 236 237 241 244 248
334 330 327 326 328 334 336 335 331 314 304 295 284 274 267 266 269 261 258 248 248 249 243 249 244 243 238 242 245 239 238 242 242 243 245 249 244 242 244 243 244 246 249
328 315 320 325 321 320 323 323 322 316 304 290 280 274 267 266 264 259 258 254 248 245 243 246 243 243 244 247 247 242 241 244 242 243 247 247 243 249 252 247 246 250 250
324 317 313 314 315 317 320 321 319 313 302 288 278 273 268 265 264 258 257 255 249 245 244 246 246 249 248 248 249 250 248 245 243 246 248 249 249 253 252 252 249 250 253
326 327 319 315 315 314 318 319 315 312 307 294 284 276 271 267 264 261 257 255 253 248 243 248 254 252 249 249 251 253 250 248 249 251 250 252 254 256 255 254 254 255 255
318 322 322 318 318 316 317 319 316 314 317 306 290 285 269 264 263 261 258 256 255 252 249 249 253 255 252 250 251 250 250 249 250 254 256 256 254 257 256 258 258 260 257
310 307 309 307 308 312 312 312 313 309 306 300 290 284 268 262 265 265 262 258 257 256 258 254 255 254 252 255 255 254 251 250 251 254 256 256 256 258 257 259 261 258 258
311 305 302 303 305 306 305 305 306 302 299 296 293 284 272 264 264 268 266 262 260 258 259 258 255 254 256 257 258 258 255 252 254 254 256 258 258 259 258 259 259 256 255
302 301 301 302 306 306 304 303 302 300 296 293 291 284 277 270 266 267 267 263 261 260 260 260 259 260 260 260 259 262 262 260 258 257 256 256 259 258 260 261 257 256 256
295 295 297 299 301 302 301 301 297 295 294 292 291 287 283 277 272 269 267 266 262 262 261 260 260 261 260 261 261 262 262 263 263 261 257 256 257 261 260 261 261 260 258
292 288 289 293 294 295 295 294 292 292 292 292 292 290 289 284 277 272 269 265 264 263 262 260 260 261 261 261 260 261 261 261 262 262 259 258 257 259 259 260 260 261 261
293 288 288 290 291 292 293 290 289 293 293 292 291 290 290 289 286 281 275 269 265 263 262 260 262 260 260 261 258 260 262 262 261 261 261 260 258 258 259 261 259 261 260
293 287 287 289 288 289 292 293 290 290 292 293 292 291 290 287 287 286 282 275 270 266 261 260 259 259 260 261 259 260 262 263 262 261 260 260 259 258 261 263 261 259 259
294 290 288 288 288 288 291 293 291 290 290 290 292 294 292 289 288 286 283 279 273 270 264 261 261 261 261 263 260 260 262 263 264 261 259 259 259 259 261 262 261 259 258
293 290 289 288 289 290 290 291 290 289 289 287 290 292 292 291 289 288 285 281 276 274 273 269 267 265 263 264 262 262 262 264 263 261 259 260 259 259 261 261 259 257 257
292 288 287 286 287 288 289 289 288 287 286 285 288 290 288 290 289 289 286 282 281 280 279 274 272 269 269 267 263 263 263 262 261 261 260 260 260 261 259 258 254 255 256
292 288 287 287 288 288 287 287 289 287 285 287 289 290 289 288 287 287 286 284 283 282 281 277 274 271 271 268 264 264 263 261 261 260 260 261 261 259 258 256 253 253 255
290 288 287 288 289 289 287 286 285 285 284 287 290 290 290 287 286 284 284 285 282 282 281 279 277 274 272 270 266 264 262 262 261 262 260 261 260 258 256 256 255 253 256
288 287 286 287 287 288 287 287 286 284 283 285 289 290 289 287 285 284 284 285 283 281 281 281 279 277 274 271 267 264 262 263 262 263 262 261 260 258 256 255 254 255 256
288 288 288 287 287 288 289 289 289 287 287 288 288 288 287 285 284 284 282 285 285 282 281 280 279 276 274 271 268 267 265 262 261 260 260 260 259 258 258 255 255 256 257
289 288 287 288 287 288 288 288 288 289 288 286 287 287 287 286 283 283 283 284 284 283 282 280 278 276 274 270 267 266 265 263 261 260 259 259 258 257 257 257 256 255 253
292 290 289 288 288 288 287 287 287 288 289 287 287 287 288 286 283 283 283 283 283 283 282 279 277 277 274 271 267 264 262 262 262 261 260 257 256 255 255 255 254 253 252
292 292 291 289 287 286 286 287 286 288 289 289 288 288 287 285 284 281 280 282 282 281 280 278 278 276 273 269 266 263 261 262 263 263 261 257 256 254 253 253 254 253 253
291 291 291 291 289 287 286 286 287 288 290 290 287 287 287 286 284 281 281 282 281 281 279 277 276 275 274 270 267 264 261 261 261 262 261 261 258 255 255 255 255 255 255
292 291 290 290 290 289 288 287 287 287 288 288 288 287 286 285 282 280 280 281 280 280 279 277 274 273 272 271 269 266 264 263 261 260 261 262 261 259 260 257 255 255 256
Height
5888 5887 5887 5886 5886 5886 5885 5884 5884 5883 5883 5883 5882 5882 5882 5882 5882 5882 5882 5882 5883 5883 5883 5883 5883 5883 5883 5884 5884 5884 5884 5885 5885 5885 5886 5886 5886 5886 5887 5887 5887 5888 5888
5887 5886 5886 5886 5885 5885 5884 5884 5883 5882 5882 5881 5881 5881 5881 5881 5880 5880 5881 5881 5881 5881 5881 5882 5882 5882 5882 5882 5882 5883 5883 5883 5884 5884 5884 5884 5885 5885 5885 5885 5886 5886 5886
5886 5885 5885 5885 5884 5884 5883 5882 5882 5881 5880 5880 5879 5879 5879 5879 5879 5879 5879 5879 5879 5880 5880 5880 5880 5880 5880 5881 5881 5881 5881 5882 5882 5883 5883 5883 5883 5883 5883 5884 5884 5884 5884
5884 5884 5884 5884 5883 5883 5882 5881 5880 5879 5879 5878 5877 5877 5877 5877 5877 5877 5877 5877 5878 5878 5878 5878 5879 5879 5879 5879 5879 5879 5879 5880 5880 5881 5881 5881 5882 5882 5882 5882 5882 5882 5883
5883 5883 5883 5882 5882 5881 5881 5880 5879 5878 5877 5876 5876 5875 5875 5875 5875 5875 5875 5875 5875 5875 5876 5876 5876 5877 5877 5877 5877 5877 5877 5878 5878 5878 5879 5879 5879 5880 5880 5880 5880 5880 5880
5882 5882 5881 5881 5880 5880 5879 5878 5878 5877 5875 5875 5874 5874 5873 5873 5873 5873 5873 5873 5873 5873 5873 5874 5874 5874 5874 5874 5874 5875 5875 5875 5876 5876 5876 5877 5877 5877 5878 5878 5878 5878 5878
5880 5880 5880 5879 5879 5878 5878 5877 5876 5875 5874 5873 5873 5872 5872 5871 5871 5870 5870 5871 5871 5871 5871 5871 5871 5871 5871 5872 5872 5872 5872 5873 5873 5873 5874 5874 5875 5875 5875 5875 5875 5875 5875
5879 5879 5878 5878 5877 5877 5876 5875 5874 5873 5873 5871 5871 5870 5870 5870 5869 5868 5868 5868 5868 5868 5868 5868 5868 5868 5869 5869 5869 5869 5869 5870 5870 5870 5871 5871 5872 5872 5872 5872 5872 5872 5872
5877 5877 5877 5876 5875 5875 5874 5873 5872 5871 5870 5869 5868 5868 5867 5866 5866 5866 5865 5865 5865 5865 5865 5865 5865 5865 5865 5866 5866 5866 5866 5866 5867 5867 5867 5867 5868 5868 5868 5869 5868 5868 5868
5875 5875 5874 5874 5873 5872 5871 5870 5869 5868 5867 5866 5866 5865 5864 5864 5864 5863 5863 5862 5862 5862 5862 5862 5862 5862 5862 5862 5862 5862 5863 5863 5863 5863 5863 5863 5864 5864 5864 5864 5864 5864 5865
5873 5872 5872 5871 5871 5870 5869 5868 5866 5865 5864 5863 5863 5862 5861 5860 5860 5859 5859 5859 5858 5858 5858 5858 5858 5858 5858 5858 5858 5858 5858 5858 5858 5859 5859 5859 5859 5859 5860 5860 5860 5860 5861
5870 5869 5869 5868 5867 5866 5865 5864 5863 5862 5861 5860 5859 5858 5857 5857 5856 5855 5854 5854 5854 5854 5854 5854 5854 5853 5853 5853 5853 5853 5853 5853 5853 5854 5854 5854 5854 5855 5855 5855 5856 5856 5857
5867 5866 5865 5865 5864 5863 5862 5860 5859 5858 5858 5857 5856 5854 5853 5852 5851 5851 5850 5850 5849 5849 5849 5849 5849 5849 5848 5848 5848 5848 5848 5848 5848 5848 5849 5849 5849 5849 5850 5850 5851 5851 5852
5863 5863 5861 5861 5860 5859 5858 5857 5856 5855 5854 5853 5852 5850 5849 5848 5847 5846 5846 5845 5845 5844 5844 5844 5844 5843 5843 5843 5843 5843 5843 5843 5843 5843 5843 5843 5844 5844 5845 5845 5846 5846 5847
5860 5859 5858 5857 5856 5855 5854 5853 5852 5851 5850 5849 5847 5846 5845 5844 5843 5842 5841 5840 5839 5839 5839 5838 5838 5837 5837 5837 5837 5837 5837 5837 5837 5837 5837 5838 5838 5839 5839 5839 5840 5840 5841
5856 5855 5854 5853 5852 5851 5850 5849 5848 5846 5845 5844 5843 5841 5840 5839 5838 5837 5835 5835 5834 5833 5833 5832 5831 5831 5831 5831 5830 5830 5830 5830 5830 5830 5831 5831 5832 5833 5833 5834 5834 5835 5835
5852 5851 5850 5849 5847 5846 5845 5844 5842 5842 5840 5839 5838 5836 5835 5834 5833 5831 5830 5829 5828 5827 5827 5826 5825 5824 5824 5824 5824 5824 5823 5823 5823 5824 5825 5825 5826 5826 5827 5828 5828 5829 5830
5848 5846 5845 5844 5842 5841 5839 5838 5837 5836 5835 5833 5832 5831 5830 5828 5827 5826 5825 5824 5823 5821 5821 5820 5818 5817 5817 5817 5816 5817 5817 5817 5817 5817 5818 5818 5819 5820 5821 5822 5822 5823 5824
5843 5841 5840 5839 5837 5836 5834 5833 5832 5830 5829 5828 5827 5825 5824 5823 5821 5820 5819 5818 5817 5815 5814 5813 5812 5811 5810 5810 5810 5810 5810 5810 5810 5810 5811 5811 5812 5813 5814 5815 5816 5817 5818
5837 5836 5834 5833 5832 5830 5828 5827 5826 5824 5823 5822 5821 5819 5818 5817 5815 5814 5812 5811 5810 5809 5808 5806 5805 5804 5804 5803 5803 5803 5803 5804 5804 5804 5804 5805 5805 5806 5807 5808 5810 5811 5811
5832 5830 5829 5827 5826 5824 5822 5821 5820 5818 5817 5816 5814 5813 5811 5810 5808 5807 5806 5805 5803 5802 5801 5799 5798 5798 5797 5796 5796 5796 5797 5797 5797 5797 5798 5799 5799 5799 5800 5802 5803 5804 5805
5826 5825 5823 5822 5820 5818 5817 5815 5814 5812 5811 5809 5808 5806 5805 5803 5801 5800 5799 5797 5796 5795 5793 5792 5791 5791 5790 5789 5789 5789 5789 5790 5791 5791 5791 5792 5792 5793 5794 5795 5796 5797 5798
5820 5818 5817 5815 5813 5812 5810 5809 5807 5806 5804 5803 5801 5800 5798 5796 5794 5793 5792 5790 5789 5787 5786 5785 5784 5784 5783 5782 5781 5782 5782 5783 5783 5784 5784 5785 5786 5787 5787 5788 5789 5790 5791
5814 5812 5810 5808 5806 5805 5803 5802 5800 5799 5797 5796 5794 5792 5791 5789 5787 5785 5784 5783 5782 5780 5779 5778 5777 5776 5776 5775 5774 5774 5775 5776 5776 5777 5777 5778 5779 5779 5780 5781 5782 5783 5784
5807 5805 5803 5801 5799 5798 5796 5794 5793 5791 5790 5788 5786 5785 5783 5782 5780 5778 5776 5775 5774 5772 5771 5770 5770 5769 5768 5768 5767 5767 5768 5768 5769 5770 5770 5771 5772 5772 5773 5774 5775 5775 5776
5800 5798 5796 5794 5792 5790 5789 5787 5785 5783 5782 5780 5778 5777 5775 5774 5772 5770 5769 5768 5767 5765 5764 5763 5762 5761 5761 5760 5760 5760 5760 5761 5762 5763 5763 5764 5764 5765 5766 5767 5767 5768 5768